Location: Brabourne
(51.1333°N, 1.0000°E)
Time: 06:03:44
(UTC+00:00)

NOSS 3-1 (A) - Pass Details

Date: 27 October 2021
Orbit: 721 x 1491 km, 63.4° (Epoch: 22 November)

Event Time Altitude Azimuth Distance (km) Brightness Sun altitude
Rises 19:14:49 0° 240° (WSW) 3,272 7.0 -25.0°
Reaches altitude 10° 19:17:07 10° 245° (WSW) 2,414 6.3 -25.3°
Maximum altitude 19:22:35 57° 324° (NW) 1,078 3.9 -26.2°
Enters shadow 19:25:51 29° 31° (NNE) 1,746 4.6 -26.7°
